Location: Seattle
(47.6064°N, 122.3308°W)
Time: 01:32:25
(UTC-08:00)

Tiros 1 - Pass Details

Date: 01 December 2020
Orbit: 630 x 663 km, 48.4° (Epoch: 28 January)

Event Time Altitude Azimuth Distance (km) Brightness Sun altitude
Rises 17:50:59 0° 278° (W) 2,994 11.8 -14.8°
Reaches altitude 10° 17:53:21 10° 279° (W) 2,079 10.8 -15.2°
Maximum altitude 17:58:09 86° 7° (N) 665 7.1 -16.0°
Enters shadow 18:00:46 27° 97° (E) 1,256 8.1 -16.4°
Drops below altitude 10° 18:02:56 10° 98° (E) 2,060 - -16.7°
Sets 18:05:16 0° 99° (E) 2,965 - -17.1°
